EW7398 Weather Reports


Display with metric or nautical units.
time (UTC)temp
F
wind
direction
speed
MPH
gust
MPH
rain 1hr
in
rain 24hr
in
rain mn
in
humidity
%
barometer
mb
20200405103247 41 166 5.0 9.0 0.00 0.00 0.00 64 1007.6
20200405101617 42 173 5.0 6.0 0.00 0.00 0.00 61 1007.6
20200405100137 43 171 5.0 8.0 0.00 0.00 0.00 60 1007.7
20200405094624 42 178 1.0 4.0 0.00 0.00 0.00 60 1007.7
20200405093049 44 181 3.0 5.0 0.00 0.00 0.00 58 1007.7
20200405091629 44 181 0.0 5.0 0.00 0.00 0.00 56 1008.0
20200405084529 47 142 2.0 8.0 0.00 0.00 0.00 51 1008.1
20200405083122 47 179 3.0 6.0 0.00 0.00 0.00 51 1008.1
20200405081548 47 201 1.0 5.0 0.00 0.00 0.00 52 1008.3
20200405074751 48 196 0.0 1.0 0.00 0.00 0.00 49 1008.4
20200405073036 49 186 3.0 7.0 0.00 0.00 0.00 48 1008.5
20200405071526 47 192 4.0 7.0 0.00 0.00 0.00 51 1008.6
20200405070014 46 177 3.0 5.0 0.00 0.00 0.00 54 1008.5
20200405064613 46 177 4.0 5.0 0.00 0.00 0.00 54 1008.7
20200405063127 46 178 3.0 5.0 0.00 0.00 0.00 54 1008.6
20200405063003 46 177 3.0 5.0 0.00 0.00 0.00 53 1008.5
20200405061552 47 123 3.0 7.0 0.00 0.00 0.00 51 1008.5
20200405060104 47 154 0.0 0.0 0.00 0.00 0.00 51 1008.6
20200405054608 48 149 0.0 0.0 0.00 0.00 0.00 51 1008.7
20200405053030 49 141 0.0 0.0 0.00 0.00 0.00 48 1008.8
20200405051645 49 134 0.0 2.0 0.00 0.00 0.00 47 1008.8
20200405044642 49 200 0.0 1.0 0.00 0.00 0.00 48 1008.7
20200405043143 50 167 0.0 0.0 0.00 0.00 0.00 47 1008.6
20200405041554 50 142 0.0 9.0 0.00 0.00 0.00 45 1008.5
20200405040006 48 119 0.0 0.0 0.00 0.00 0.00 49 1008.3
20200405034824 49 147 0.0 0.0 0.00 0.00 0.00 47 1008.4
20200405033011 51 156 0.0 0.0 0.00 0.00 0.00 43 1008.2
20200405031504 54 189 0.0 0.0 0.00 0.00 0.00 40 1008.1
20200405030106 55 190 0.0 0.0 0.00 0.00 0.00 38 1007.9
20200405024656 55 190 0.0 0.0 0.00 0.00 0.00 37 1007.8
20200405023144 56 215 0.0 0.0 0.00 0.00 0.00 36 1007.7
20200405023003 56 216 0.0 0.0 0.00 0.00 0.00 36 1007.7
20200405021532 57 203 0.0 9.0 0.00 0.00 0.00 34 1007.6
20200405020101 58 178 5.0 16.0 0.00 0.00 0.00 33 1007.5
20200405014615 59 209 7.0 19.0 0.00 0.00 0.00 32 1007.5
20200405013037 60 211 9.0 15.0 0.00 0.00 0.00 31 1007.5
20200405011645 60 229 3.0 11.0 0.00 0.00 0.00 31 1007.4
20200405004524 62 196 12.0 19.0 0.00 0.00 0.00 27 1007.4
20200405003130 63 185 9.0 18.0 0.00 0.00 0.00 27 1007.2
20200405001541 63 221 9.0 19.0 0.00 0.00 0.00 26 1007.2
20200405000101 64 178 11.0 20.0 0.00 0.00 0.00 26 1007.1
20200404234620 64 216 9.0 23.0 0.00 0.00 0.00 26 1007.1
20200404233047 64 360 7.0 21.0 0.00 0.00 0.00 25 1007.0
20200404231637 65 360 12.0 26.0 0.00 0.00 0.00 23 1007.1
20200404224538 67 360 18.0 26.0 0.00 0.00 0.00 22 1007.0
20200404223211 67 360 11.0 20.0 0.00 0.00 0.00 22 1007.1
20200404221530 67 360 11.0 22.0 0.00 0.00 0.00 22 1007.0
20200404220135 67 360 14.0 23.0 0.00 0.00 0.00 23 1006.9
20200404214538 67 360 13.0 28.0 0.00 0.00 0.00 23 1007.2
20200404213218 67 360 11.0 19.0 0.00 0.00 0.00 23 1007.3
20200404211530 68 360 10.0 17.0 0.00 0.00 0.00 21 1007.5
20200404210118 68 360 6.0 16.0 0.00 0.00 0.00 22 1007.6
20200404204714 66 28 7.0 20.0 0.00 0.00 0.00 26 1008.0
20200404203020 65 21 9.0 19.0 0.00 0.00 0.00 27 1008.2
20200404201650 65 18 2.0 15.0 0.00 0.00 0.00 29 1008.2
20200404194523 65 16 12.0 23.0 0.00 0.00 0.00 29 1008.5
20200404193059 66 16 9.0 39.0 0.00 0.00 0.00 26 1008.8
20200404191513 64 18 8.0 20.0 0.00 0.00 0.00 29 1009.2
20200404190315 64 360 9.0 18.0 0.00 0.00 0.00 28 1009.3
20200404184515 63 185 7.0 21.0 0.00 0.00 0.00 28 1009.6
20200404183131 63 150 12.0 19.0 0.00 0.00 0.00 30 1009.7
20200404181544 62 181 12.0 20.0 0.00 0.00 0.00 31 1009.8
20200404180156 61 146 10.0 20.0 0.00 0.00 0.00 33 1009.9
20200404174602 61 147 7.0 19.0 0.00 0.00 0.00 32 1010.0
20200404173022 60 128 4.0 17.0 0.00 0.00 0.00 31 1010.1
20200404171602 59 123 11.0 19.0 0.00 0.00 0.00 31 1010.2
20200404170208 58 159 13.0 19.0 0.00 0.00 0.00 33 1010.2
20200404164509 57 180 9.0 17.0 0.00 0.00 0.00 37 1010.3
20200404163054 56 165 12.0 19.0 0.00 0.00 0.00 38 1010.2
20200404161633 54 143 12.0 18.0 0.00 0.00 0.00 41 1010.0
20200404154604 53 171 14.0 20.0 0.00 0.00 0.00 43 1009.6
20200404153141 52 148 12.0 19.0 0.00 0.00 0.00 44 1009.6
20200404151535 51 168 10.0 16.0 0.00 0.00 0.00 47 1009.4
20200404150141 49 174 7.0 12.0 0.00 0.00 0.00 51 1009.4
20200404144725 47 189 6.0 8.0 0.00 0.00 0.00 54 1009.3
20200404143048 43 171 6.0 8.0 0.00 0.00 0.00 62 1009.3
20200404141704 41 158 0.0 0.0 0.00 0.00 0.00 65 1009.1
20200404140003 39 177 0.0 6.0 0.00 0.00 0.00 69 1009.1
20200404134556 37 176 0.0 0.0 0.00 0.00 0.00 69 1008.9
20200404133140 36 172 0.0 0.0 0.00 0.00 0.00 70 1008.9
20200404131544 36 173 0.0 0.0 0.00 0.00 0.00 71 1008.8
20200404130100 36 173 0.0 0.0 0.00 0.00 0.00 70 1008.8
20200404124659 36 173 0.0 0.0 0.00 0.00 0.00 71 1008.7
20200404121633 37 176 0.0 0.0 0.00 0.00 0.00 70 1008.7
20200404114625 38 176 0.0 0.0 0.00 0.00 0.00 66 1008.5
20200404113050 38 177 0.0 0.0 0.00 0.00 0.00 66 1008.6
20200404111652 39 177 0.0 0.0 0.00 0.00 0.00 65 1008.5
20200404111505 39 177 0.0 0.0 0.00 0.00 0.00 65 1008.6
20200404110100 40 177 0.0 0.0 0.00 0.00 0.00 64 1008.7
20200404104719 41 186 0.0 0.0 0.00 0.00 0.00 61 1008.6